User: anonymous   Login
Location: Caltech
(34.1382°N, 118.1253°W)
Time: 20:06:31
(UTC-07:00)
Language:

SEDSat Delta rocket - Orbit

View from above orbital plane
View from above orbital plane
View from above satellite
View from above satellite

Ground track
Ground track

The orbit data is extracted from the following two-line orbital elements,

1 25510U 98061C   18147.61061944 +.00000169 +00000-0 +16467-4 0  9993
2 25510 031.4371 324.6353 0328075 255.7529 182.4331 14.37331120027411
Epoch (UTC): 27 May 2018 14:39:17
Eccentricity: 0.0328075
inclination: 31.4371°
perigee height: 533 km
apogee height: 1002 km
right ascension of ascending node: 324.6353°
argument of perigee: 255.7529°
revolutions per day: 14.37331120
mean anomaly at epoch: 182.4331°
orbit number at epoch: 2741

The dashed part of the orbit path shows where the satellite is in the earth's shadow,  

DLR